Printer-friendly version

IAU Minor Planet Center

Minor Planet Center

MPEC 2008-E29 : 2008 EO

The following Minor Planet Electronic Circular may be linked-to from your own Web pages, but must not otherwise be redistributed electronically.


Read MPEC 2008-E28 Read MPEC 2008-E30


M.P.E.C. 2008-E29                                Issued 2008 Mar. 3, 13:16 UT

     The Minor Planet Electronic Circulars contain information on unusual
         minor planets and routine data on comets.  They are published
   on behalf of Commission 20 of the International Astronomical Union by the
          Minor Planet Center, Smithsonian Astrophysical Observatory,
                          Cambridge, MA 02138, U.S.A.

             Prepared using the Tamkin Foundation Computer Network

                              MPC@CFA.HARVARD.EDU
          URL http://www.cfa.harvard.edu/iau/mpc.html  ISSN 1523-6714

                                    2008 EO

Observations:
     K08E00O* C2008 03 01.50215 13 25 02.56 +08 20 26.4          20.8 V EE029G96
     K08E00O  C2008 03 01.50462 13 25 01.30 +08 20 48.8          20.9 V EE029G96
     K08E00O  C2008 03 01.50712 13 25 00.01 +08 21 11.7          20.9 V EE029G96
     K08E00O  C2008 03 01.50963 13 24 58.75 +08 21 33.9          20.9 V EE029G96
     K08E00O  C2008 03 02.46928 13 17 25.94 +10 40 44.2          21.5 V EE029G96
     K08E00O  C2008 03 02.47060 13 17 25.26 +10 40 56.0          21.4 V EE029G96
     K08E00O  C2008 03 02.47193 13 17 24.68 +10 41 06.6          21.1 V EE029G96
     K08E00O  C2008 03 02.47331 13 17 24.07 +10 41 17.3          21.1 V EE029G96
     K08E00O  C2008 03 03.41266 13 10 28.66 +12 45 18.2          20.9 V EE029G96
     K08E00O  C2008 03 03.41523 13 10 27.48 +12 45 38.8          21.4 V EE029G96
     K08E00O  C2008 03 03.42024 13 10 25.21 +12 46 16.2          20.7 V EE029G96

Observer details:
G96 Mt. Lemmon Survey.  Observer E. Beshore.  Measurers E. C. Beshore,
    A. Boattini, G. J. Garradd, A. R. Gibbs, A. D. Grauer, R. E. Hill,
    R. A. Kowalski, S. M. Larson, R. H. McNaught.  1.5-m reflector + CCD.

Orbital elements:
2008 EO                                                  Earth MOID = 0.0189 AU
Epoch 2008 May 14.0 TT = JDT 2454600.5                  MPC
M 101.84898              (2000.0)            P               Q
n   0.72092088     Peri.  258.01723     +0.52696246     -0.84306536
a   1.2318117      Node   159.08350     +0.84859174     +0.51495087
e   0.5011607      Incl.   17.52073     +0.04693211     +0.15513352
P   1.37           H   23.9           G   0.15           U   9
Residuals in seconds of arc
080301 G96  0.0   0.1+    080302 G96  0.1-  0.2-    080303 G96  0.1+  0.7-
080301 G96  0.0   0.0     080302 G96  0.8-  0.7+    080303 G96  0.1-  0.5+
080301 G96  0.2-  0.2+    080302 G96  0.1+  0.2+    080303 G96  0.1-  0.1+
080301 G96  0.1+  0.4-    080302 G96  0.9+  0.5-

Ephemeris:
2008 EO                  a,e,i = 1.23, 0.50, 18                  q = 0.6145
Date    TT    R. A. (2000) Decl.     Delta      r     Elong.  Phase     V
2008 02 24    14 31.47   -13 08.4    0.0985   1.035   114.9    60.1    21.1
2008 02 25    14 19.30   -09 15.7    0.101    1.044   119.9    55.3    21.0
2008 02 26    14 07.90   -05 32.8    0.104    1.052   124.6    50.7    21.0
2008 02 27    13 57.23   -02 02.1    0.107    1.061   129.1    46.5    20.9
2008 02 28    13 47.26   +01 14.4    0.111    1.070   133.1    42.5    20.9
2008 02 29    13 37.95   +04 16.1    0.116    1.078   136.8    38.9    20.9
2008 03 01    13 29.24   +07 02.7    0.121    1.087   140.2    35.7    21.0
2008 03 02    13 21.10   +09 34.7    0.127    1.095   143.2    32.9    21.0
2008 03 03    13 13.48   +11 52.6    0.133    1.104   145.8    30.4    21.0
2008 03 04    13 06.36   +13 57.3    0.139    1.112   148.0    28.2    21.1
2008 03 05    12 59.69   +15 50.0    0.146    1.121   149.9    26.3    21.2
2008 03 06    12 53.44   +17 31.5    0.153    1.129   151.5    24.8    21.2
2008 03 07    12 47.58   +19 02.9    0.160    1.137   152.7    23.6    21.3
2008 03 08    12 42.09   +20 25.2    0.168    1.146   153.7    22.6    21.4
2008 03 09    12 36.93   +21 39.2    0.176    1.154   154.4    21.9    21.5
2008 03 10    12 32.10   +22 45.7    0.184    1.162   154.8    21.3    21.6
2008 03 11    12 27.55   +23 45.5    0.192    1.170   155.0    21.0    21.7
2008 03 12    12 23.29   +24 39.2    0.200    1.178   155.0    20.9    21.8
2008 03 13    12 19.29   +25 27.4    0.209    1.186   154.9    20.8    21.9
2008 03 14    12 15.53   +26 10.7    0.218    1.194   154.6    20.9    22.0
2008 03 15    12 11.99   +26 49.5    0.227    1.202   154.2    21.1    22.1

Timothy B. Spahr             (C) Copyright 2008 MPC           M.P.E.C. 2008-E29

Read MPEC 2008-E28 Read MPEC 2008-E30


Our Web policy. Index to the CBAT/MPC/ICQ pages.


Valid HTML 4.01!